Home   Weather   Monticello   Past weeks

Flag for USA Past Weather in Monticello, Kentucky, USA — Yesterday and Last 2 Weeks

Now
24 °F

Clear.


Feels Like: 24 °F
Forecast: 17 / 53 °F
Wind: No wind

Location: London-Corbin Airport-Magee Field

Current Time: Dec 11, 2016 at 6:51:57 am

Latest Report: Dec 11, 2016 at 5:53 am


Visibility: 10 mi

Pressure: 30.34 "Hg

Humidity: 68%

Dew Point: 15 °F

Location of MonticelloLocation

Past Weather in Monticello — Graph

°F

Monticello Temperature Yesterday

Maximum temperature yesterday: 32 °F (at 3:53 pm)
Minimum temperature yesterday: 13 °F (at 6:53 am)
Average temperature yesterday: 23 °F

High & Low Weather Summary for the Past Weeks

 TemperatureHumidityPressure
High67 °F (Nov 29, 2:53 pm)97% (Dec 6, 1:53 pm)30.64 "Hg (Dec 6, 1:53 pm)
Low13 °F (Dec 10, 6:53 am)27% (Nov 27, 2:53 pm)29.56 "Hg (Nov 28, 9:53 pm)
Average41 °F70%30.11 "Hg
* Reported Nov 26 4:53 am — Dec 11 4:53 am, Monticello, Weather by CustomWeather, © 2016

Note: Actual official high and low records may vary slightly from our data, if they occured in-between our weather recording intervals... More about our weather records

Advertising

Monticello Weather History for the Previous 24 Hours

Scroll right to see more
 ConditionsComfort  
Time TempWeatherWind HumidityBarometerVisibility
4:53 am
Sun, Dec 11
23 °FClear.3 mph74%30.34 "Hg10 mi
3:53 am24 °FClear.No wind71%30.36 "Hg10 mi
2:53 am24 °FClear.3 mph75%30.37 "Hg10 mi
1:53 am24 °FClear.No wind75%30.39 "Hg10 mi
12:53 am24 °FClear.No wind75%30.41 "Hg10 mi
11:53 pm
Sat, Dec 10
25 °FClear.No wind69%30.42 "Hg10 mi
10:53 pm27 °FClear.No wind61%30.43 "Hg10 mi
9:53 pm28 °FClear.No wind58%30.44 "Hg10 mi
8:53 pm26 °FPassing clouds.No wind69%30.47 "Hg10 mi
7:53 pm28 °FClear.No wind58%30.49 "Hg10 mi
6:53 pm28 °FClear.No wind56%30.50 "Hg10 mi
5:53 pm30 °FClear.No wind49%30.50 "Hg10 mi
4:53 pm31 °FSunny.3 mph47%30.50 "Hg10 mi
3:53 pm32 °FSunny.No wind45%30.51 "Hg10 mi
2:53 pm31 °FSunny.No wind47%30.52 "Hg10 mi
1:53 pm29 °FSunny.3 mph54%30.55 "Hg10 mi
12:53 pm28 °FSunny.No wind58%30.57 "Hg10 mi
11:53 am27 °FPassing clouds.3 mph63%30.60 "Hg10 mi
10:53 am24 °FSunny.3 mph71%30.62 "Hg10 mi
9:53 am21 °FSunny.3 mph78%30.64 "Hg10 mi
8:53 am17 °FSunny.No wind83%30.62 "Hg10 mi
7:53 am13 °FSunny.No wind84%30.60 "Hg10 mi
6:53 am13 °FClear.No wind84%30.60 "Hg10 mi
Weather by CustomWeather, © 2016

See weather overviewHow to use our weather pages